Sable Island, Nova Scotia

4:03 PM AST on December 09, 2016 (GMT -0400)
Sable Island

Weather History for CWSA - December, 2011

Change the Weather History Date:

Saturday, December 24, 2011

  Actual Average Record
Temperature  
Mean Temperature 32 °F -  
Max Temperature 39 °F 38 °F 51 °F (2004)
Min Temperature 24 °F 27 °F 21 °F (2000)
Degree Days  
Heating Degree Days 33    
Moisture  
Dew Point 29 °F    
Average Humidity 81    
Maximum Humidity 93    
Minimum Humidity 50    
Precipitation  
Precipitation 0.02 in 0.19 in - ()
Sea Level Pressure  
Sea Level Pressure 30.07 in    
Wind  
Wind Speed 16 mph ()    
Max Wind Speed 26 mph    
Max Gust Speed 33 mph    
Visibility 7.6 miles    
Events Rain , Snow    
Averages and records for this station are not official NWS values.
T = Trace of Precipitation, MM = Missing Value Source: Averaged Metar Reports

Daily Weather History Graph

Daily Weather History Graph

Search for Another Location

Airport or City:

Trip Planner

Search our weather history database for the weather conditions in past years. The results will help you decide how hot, cold, wet, or windy it might be!

Date:

Astronomy

Dec. 24, 2011 Rise Set
Actual Time 7:32 AM AST 4:26 PM AST
Civil Twilight 6:59 AM AST 4:59 PM AST
Nautical Twilight 6:22 AM AST 5:36 PM AST
Astronomical Twilight 5:47 AM AST 6:11 PM AST
Moon 7:16 AM AST (12/24) 4:34 PM AST (12/24)
Length of Visible Light 10h 00m
Length of Day
8h 53m
Waning Crescent, 0% of the Moon is Illuminated
Dec 24
Waning Crescent
Dec 24
New
Jan 1
First Quarter
Jan 9
Full
Jan 16
Last Quarter

Hourly Weather History & Observations

Time (AST) Temp. Windchill Dew Point Humidity Pressure Visibility Wind Dir Wind Speed Gust Speed Precip Events Conditions
12:00 AM 39.2 °F 31.2 °F 35.6 °F 87% 29.80 in 9.0 mi NW 13.8 mph 19.6 mph N/A   Overcast
1:00 AM 39.2 °F 30.8 °F 35.6 °F 87% 29.83 in 9.0 mi NNW 15.0 mph - N/A   Overcast
1:56 AM 39.2 °F 30.2 °F 33.8 °F 81% 29.86 in 9.0 mi NW 17.3 mph - N/A   Overcast
2:00 AM 39 °F - 34 °F 76% 29.87 in 9 mi NW 16.1 mph - -   Overcast
2:00 AM 39.2 °F 30.5 °F 33.8 °F 81% 29.87 in 9.0 mi NW 16.1 mph - N/A   Overcast
2:18 AM 39.2 °F 30.2 °F 33.8 °F 81% 29.88 in 8.0 mi NW 17.3 mph - N/A Rain Light Rain
2:38 AM 39.2 °F 31.2 °F 35.6 °F 87% 29.88 in 9.0 mi NW 13.8 mph - N/A   Overcast
3:00 AM 39.2 °F 30.5 °F 33.8 °F 81% 29.90 in 9.0 mi NW 16.1 mph - N/A   Mostly Cloudy
3:02 AM 39.2 °F 30.8 °F 35.6 °F 87% 29.90 in 9.0 mi NW 15.0 mph - N/A Rain Light Rain
3:04 AM 39.2 °F 30.5 °F 35.6 °F 87% 29.89 in 9.0 mi NW 16.1 mph - N/A Rain Light Rain
3:19 AM 39.2 °F 30.8 °F 35.6 °F 87% 29.90 in 9.0 mi NNW 15.0 mph - N/A   Overcast
3:33 AM 39.2 °F 31.2 °F 35.6 °F 87% 29.90 in 9.0 mi NNW 13.8 mph - N/A   Overcast
3:58 AM 39.2 °F 30.5 °F 33.8 °F 81% 29.91 in 9.0 mi NNW 16.1 mph - N/A Rain Light Rain
4:14 AM 39.2 °F 30.5 °F 33.8 °F 81% 29.91 in 9.0 mi NW 16.1 mph - N/A   Overcast
4:26 AM 39.2 °F 30.8 °F 33.8 °F 81% 29.91 in 9.0 mi NNW 15.0 mph - N/A Rain Light Rain
4:50 AM 39.2 °F 30.8 °F 33.8 °F 81% 29.92 in 9.0 mi NW 15.0 mph - N/A   Overcast
5:00 AM 38 °F - 35 °F 83% 29.94 in 9 mi NW 15.0 mph - -   Overcast
5:00 AM 39.2 °F 30.8 °F 35.6 °F 87% 29.94 in 9.0 mi NW 15.0 mph - N/A   Overcast
5:06 AM 39.2 °F 31.6 °F 33.8 °F 81% 29.94 in 9.0 mi NW 12.7 mph 19.6 mph N/A Rain Light Rain
5:44 AM 39.2 °F 30.8 °F 33.8 °F 81% 29.95 in 9.0 mi NNW 15.0 mph - N/A   Mostly Cloudy
5:48 AM 37.4 °F 27.2 °F 33.8 °F 87% 29.95 in 9.0 mi NW 19.6 mph - N/A   Mostly Cloudy
5:49 AM 37.4 °F 27.5 °F 33.8 °F 87% 29.95 in 9.0 mi NNW 18.4 mph 24.2 mph N/A Rain Light Rain
6:00 AM 37.4 °F 28.2 °F 33.8 °F 87% 29.96 in 5.0 mi NW 16.1 mph - N/A Rain Light Rain
6:37 AM 37.4 °F 30.8 °F 33.8 °F 87% 29.97 in 9.0 mi NNW 9.2 mph - N/A   Mostly Cloudy
6:43 AM 37.4 °F 28.9 °F 33.8 °F 87% 29.98 in 7.0 mi NNW 13.8 mph - N/A Rain Light Rain
7:06 AM 37.4 °F 30.3 °F 33.8 °F 87% 29.99 in 9.0 mi NNW 10.4 mph - N/A   Mostly Cloudy
7:19 AM 37.4 °F 29.8 °F 33.8 °F 87% 29.99 in 9.0 mi NNW 11.5 mph - N/A   Mostly Cloudy
7:52 AM 37.4 °F 30.8 °F 33.8 °F 87% 30.00 in 9.0 mi NW 9.2 mph - N/A   Overcast
8:00 AM 37 °F - 32 °F 77% 30.01 in 9 mi NW 9.2 mph - -   Overcast
8:00 AM 37.4 °F 30.8 °F 32.0 °F 81% 30.01 in 9.0 mi NW 9.2 mph - N/A   Overcast
8:41 AM 37.4 °F 30.8 °F 33.8 °F 87% 30.02 in 9.0 mi NW 9.2 mph - N/A   Overcast
9:00 AM 39.2 °F 33.0 °F 33.8 °F 81% 30.03 in 9.0 mi NW 9.2 mph - N/A   Overcast
9:20 AM 39.2 °F 33.0 °F 33.8 °F 81% 30.03 in 9.0 mi North 9.2 mph - N/A   Mostly Cloudy
9:46 AM 39.2 °F 32.5 °F 35.6 °F 87% 30.03 in 9.0 mi North 10.4 mph - N/A   Overcast
10:00 AM 39.2 °F 33.6 °F 35.6 °F 87% 30.04 in 9.0 mi North 8.1 mph - N/A   Mostly Cloudy
10:29 AM 39.2 °F 34.2 °F 33.8 °F 81% 30.04 in 9.0 mi North 6.9 mph - N/A   Overcast
10:52 AM 37.4 °F 28.9 °F 33.8 °F 87% 30.04 in 9.0 mi North 13.8 mph - N/A Rain Light Rain
10:53 AM 37.4 °F 29.3 °F 33.8 °F 87% 30.04 in 9.0 mi North 12.7 mph - N/A Rain Light Rain
11:00 AM 37 °F - 35 °F 87% 30.04 in 9 mi North 12.7 mph - - Rain Light Rain
11:00 AM 37.4 °F 29.3 °F 33.8 °F 87% 30.04 in 9.0 mi North 12.7 mph - N/A Rain Light Rain
11:01 AM 37.4 °F 29.3 °F 35.6 °F 93% 30.04 in 9.0 mi North 12.7 mph - N/A Rain Light Rain
11:08 AM 37.4 °F 27.2 °F 33.8 °F 87% 30.03 in 9.0 mi North 19.6 mph - N/A   Overcast
11:13 AM 35.6 °F 24.5 °F 33.8 °F 93% 30.03 in 9.0 mi NNE 20.7 mph - N/A Rain Light Rain
11:22 AM 35.6 °F 23.7 °F 33.8 °F 93% 30.04 in 3.0 mi NNE 24.2 mph - N/A Rain Light Rain
11:23 AM 35.6 °F 24.0 °F 33.8 °F 93% 30.04 in 2.1 mi NNE 23.0 mph - N/A Rain Light Rain
11:30 AM 33.8 °F 21.0 °F 32.0 °F 93% 30.04 in 1.5 mi NNE 25.3 mph - N/A   Unknown
11:31 AM 33.8 °F 21.0 °F 32.0 °F 93% 30.04 in 1.4 mi NNE 25.3 mph - N/A   Unknown
11:42 AM 35.6 °F 24.5 °F 33.8 °F 93% 30.04 in 2.2 mi NNE 20.7 mph 27.6 mph N/A   Unknown
11:43 AM 35.6 °F 24.8 °F 32.0 °F 87% 30.04 in 2.2 mi NNE 19.6 mph 27.6 mph N/A   Unknown
11:59 AM 35.6 °F 23.7 °F 32.0 °F 87% 30.05 in 3.0 mi NNE 24.2 mph 31.1 mph N/A   Unknown
12:00 PM 35.6 °F 24.2 °F 32.0 °F 87% 30.05 in 3.0 mi NNE 21.9 mph 31.1 mph N/A   Unknown
12:27 PM 33.8 °F 21.0 °F 30.2 °F 87% 30.05 in 8.0 mi North 25.3 mph 33.4 mph N/A   Unknown
12:29 PM 33.8 °F 21.0 °F 30.2 °F 87% 30.05 in 8.0 mi NNE 25.3 mph 33.4 mph N/A   Unknown
1:00 PM 33.8 °F 21.0 °F 30.2 °F 87% 30.07 in 7.0 mi North 25.3 mph 33.4 mph N/A   Overcast
1:02 PM 33.8 °F 21.3 °F 30.2 °F 87% 30.07 in 6.0 mi North 24.2 mph 33.4 mph N/A Snow Light Snow
1:49 PM 32.0 °F 18.6 °F 28.4 °F 87% 30.08 in 2.5 mi North 25.3 mph 31.1 mph N/A Snow Light Snow
2:00 PM 32 °F - 28 °F 78% 30.09 in 2 mi North 24.2 mph - -   Unknown Precipitation
2:00 PM 32.0 °F 18.9 °F 28.4 °F 87% 30.09 in 2.5 mi North 24.2 mph 31.1 mph N/A Snow Light Snow
2:10 PM 32.0 °F 18.9 °F 28.4 °F 87% 30.09 in 4.0 mi North 24.2 mph 32.2 mph N/A Snow Light Snow
2:16 PM 32.0 °F 18.6 °F 26.6 °F 80% 30.10 in 2.5 mi North 25.3 mph 31.1 mph N/A Snow Light Snow
2:28 PM 32.0 °F 18.9 °F 28.4 °F 87% 30.10 in 1.4 mi North 24.2 mph 31.1 mph N/A Snow Light Snow
2:47 PM 32.0 °F 19.8 °F 26.6 °F 80% 30.12 in 2.0 mi North 20.7 mph 29.9 mph N/A Snow Light Snow
3:00 PM 30.2 °F 15.9 °F 26.6 °F 86% 30.13 in 3.0 mi North 26.5 mph 32.2 mph N/A Snow Light Snow
3:58 PM 32.0 °F 19.8 °F 26.6 °F 80% 30.14 in 9.0 mi North 20.7 mph 28.8 mph N/A   Overcast
4:00 PM 30.2 °F 16.8 °F 24.8 °F 80% 30.14 in 9.0 mi North 23.0 mph 28.8 mph N/A   Overcast
4:27 PM 30.2 °F 16.5 °F 24.8 °F 80% 30.16 in 8.0 mi North 24.2 mph 29.9 mph N/A Snow Light Snow
4:37 PM 32.0 °F 19.5 °F 24.8 °F 75% 30.16 in 9.0 mi North 21.9 mph 29.9 mph N/A   Overcast
4:54 PM 30.2 °F 16.5 °F 23.0 °F 75% 30.17 in 9.0 mi North 24.2 mph 31.1 mph N/A Snow Light Snow
4:57 PM 30.2 °F 16.8 °F 24.8 °F 80% 30.18 in 9.0 mi North 23.0 mph 31.1 mph N/A   Overcast
5:00 PM 30 °F - 23 °F 66% 30.18 in 9 mi North 23.0 mph - -   Overcast
5:00 PM 30.2 °F 17.4 °F 23.0 °F 75% 30.18 in 9.0 mi North 20.7 mph 29.9 mph N/A   Overcast
5:01 PM 30.2 °F 17.4 °F 24.8 °F 80% 30.18 in 8.0 mi North 20.7 mph 29.9 mph N/A Snow Light Snow
5:17 PM 30.2 °F 16.2 °F 23.0 °F 75% 30.18 in 9.0 mi North 25.3 mph 33.4 mph N/A   Overcast
6:00 PM 28.4 °F 14.7 °F 21.2 °F 74% 30.21 in 9.0 mi North 21.9 mph 29.9 mph N/A   Overcast
6:48 PM 28.4 °F 14.7 °F 19.4 °F 69% 30.23 in 7.0 mi North 21.9 mph 29.9 mph N/A Snow Light Snow
6:58 PM 28.4 °F 15.1 °F 19.4 °F 69% 30.23 in 7.0 mi North 20.7 mph 27.6 mph N/A Snow Light Snow
7:00 PM 28.4 °F 14.4 °F 19.4 °F 69% 30.24 in 7.0 mi North 23.0 mph - N/A Snow Light Snow
7:25 PM 28.4 °F 15.4 °F 17.6 °F 64% 30.24 in 9.0 mi North 19.6 mph 31.1 mph N/A   Overcast
8:00 PM 29 °F - 20 °F 58% 30.26 in 9 mi North 21.9 mph - -   Overcast
8:00 PM 28.4 °F 15.4 °F 19.4 °F 69% 30.26 in 9.0 mi North 19.6 mph 27.6 mph N/A   Overcast
8:04 PM 28.4 °F 15.1 °F 19.4 °F 69% 30.26 in 9.0 mi NNW 20.7 mph - N/A Snow Light Snow
8:13 PM 28.4 °F 15.4 °F 19.4 °F 69% 30.26 in 9.0 mi NNW 19.6 mph 29.9 mph N/A   Overcast
8:15 PM 28.4 °F 15.1 °F 21.2 °F 74% 30.26 in 9.0 mi North 20.7 mph 29.9 mph N/A Snow Light Snow
8:19 PM 28.4 °F 14.4 °F 19.4 °F 69% 30.26 in 9.0 mi NNW 23.0 mph 29.9 mph N/A   Overcast
8:32 PM 28.4 °F 15.8 °F 17.6 °F 64% 30.26 in 9.0 mi North 18.4 mph 25.3 mph N/A Snow Light Snow
8:58 PM 28.4 °F 14.7 °F 17.6 °F 64% 30.27 in 9.0 mi NNW 21.9 mph 28.8 mph N/A   Overcast
9:05 PM 28.4 °F 14.4 °F 17.6 °F 64% 30.27 in 9.0 mi North 23.0 mph 31.1 mph N/A Snow Light Snow
9:31 PM 26.6 °F 11.1 °F 15.8 °F 64% 30.28 in 9.0 mi North 26.5 mph - N/A   Overcast
10:00 PM 26.6 °F 12.4 °F 14.0 °F 59% 30.30 in 9.0 mi NNW 21.9 mph 29.9 mph N/A   Overcast
11:00 PM 25 °F - 14 °F 50% 30.31 in 9 mi North 19.6 mph - -   Overcast
11:00 PM 24.8 °F 10.7 °F 14.0 °F 64% 30.31 in 9.0 mi North 19.6 mph 27.6 mph N/A   Overcast